Find Essaim E12

NORAD ID: 28497 Int'l Des: 2004-049 Owner: CNES/DGA Country: F operational
LEOCIRCULARRETROGRADE

現在のビュー

3D地球を読み込み中...

Essaim E12について

説明を読み込み中...

次回通過

Passes for default location (London). Set your location on the main map for personalized predictions.

高度履歴

Loading altitude history...

軌道要素

1 28497U 04049F 26150.66529816 .00001572 00000-0 17745-3 0 9996
2 28497 98.2553 37.2383 0001757 56.0889 304.0494 14.88078731156852
Epoch: May 30, 2026 • Age: 12 hours

現在のステータス

高度 619.0 km
速度 7.55 km/s
衛星直下点 -36.57°S, 100.58°W
打ち上げ日 Dec 18, 2004
運用期間 21.4 years
タイプ other

技術仕様

分類 Payload
質量 119.00 kg
乾燥質量 114.00 kg
総質量 119.00 kg
長さ 0.60 m
直径 0.60 m
スパン 1.00 m
形状 Box + Pan
製造者 EADSB
バスタイプ Myriade
フェーズステータス In Orbit
所有者/国 CNES/DGA/F

Most Searched